Location: Gradaro
(45.0833°N, 10.8833°E)
Time: 10:18:41
(UTC+00:00)

Cosmos 1805 Rocket - Pass Details

Date: 29 November 2020
Orbit: 605 x 631 km, 82.5° (Epoch: 23 January)

Event Time Altitude Azimuth Distance (km) Brightness Sun altitude
Rises 05:12:31 0° 184° (S) 2,890 7.2 -13.8°
Reaches altitude 10° 05:14:44 10° 184° (S) 1,992 6.3 -13.4°
Maximum altitude 05:19:08 81° 99° (E) 642 3.7 -12.7°
Drops below altitude 10° 05:23:38 10° 11° (N) 2,020 6.1 -11.9°
Sets 05:25:53 0° 10° (N) 2,933 6.9 -11.5°
